{"data":{"norad_id":60506,"intl_designator":"2024-149AQ","name":"LUR-1","alt_names":[],"object_type":"PAYLOAD","status":"ACTIVE","operator":null,"country":"SPN","launch_date":"2024-08-16","launch_site_code":"AFWTR","launch_vehicle":null,"mission":null,"orbit_class":"UNKNOWN","rcs_meters":null,"size_class":null,"mass_kg":null,"dimensions":null,"purposes":[],"wikipedia_slug":null,"has_3d_model":false,"image_url":null,"decayed_at":null,"tle_current":{"epoch":"2026-09-22T03:02:12.374304Z","epoch_age_seconds":145805,"freshness":"FRESH","line1":"1 60506U 24149AQ  26265.12653211  .00004150  00000+0  14032-3 0  9991","line2":"2 60506  97.3671 343.2876 0003138 342.1522  17.9609 15.31185669116802","mean_motion":15.31185669,"eccentricity":0.0003138,"inclination_deg":97.3671,"raan_deg":343.2876,"arg_perigee_deg":342.1522,"mean_anomaly_deg":17.9609,"bstar":0.00014032,"rev_number":11680,"period_min":94.044767342973,"perigee_km":470.12395947632,"apogee_km":474.42327718038,"semimajor_km":6850.4106183283,"source":"CELESTRAK","updated_at":"2026-09-23T09:00:20.659741Z"}}}